Weather History for Athens, OH

Change the Weather History Date:

Thursday, January 16, 2014

  Actual Average (KPKB) Record (KPKB)
Temperature  
Mean Temperature 26 °F 31 °F  
Max Temperature 33 °F 40 °F 66 °F (1949)
Min Temperature 19 °F 23 °F -11 °F (1972)
Degree Days  
Heating Degree Days 39 34  
Month to date heating degree days 537  
Since 1 July heating degree days 2447  
Cooling Degree Days 0 0  
Month to date cooling degree days 0  
Year to date cooling degree days 0  
Moisture  
Dew Point 18 °F    
Average Humidity 70    
Maximum Humidity 92    
Minimum Humidity 47    
Precipitation  
Precipitation 0.00 in 0.10 in 0.20 in (2013)
Month to date precipitation 1.51  
Year to date precipitation 1.51  
Sea Level Pressure  
Sea Level Pressure 29.92 in    
Wind  
Wind Speed 5 mph (SSW)    
Max Wind Speed 14 mph    
Max Gust Speed 29 mph    
Visibility 9 miles    
Events Snow    
T = Trace of Precipitation, MM = Missing Value Source: NWS Daily Summary

Daily Weather History Graph

Daily Weather History Graph

Search for Another Location

Airport:

Trip Planner

Search our weather history database for the weather conditions in past years. The results will help you decide how hot, cold, wet, or windy it might be!

Date:

Astronomy

Jan. 16, 2014 Rise Set
Actual Time 7:46 AM EST 5:31 PM EST
Civil Twilight 7:17 AM EST 6:00 PM EST
Nautical Twilight 6:44 AM EST 6:33 PM EST
Astronomical Twilight 6:12 AM EST 7:05 PM EST
Moon 6:21 PM EST (1/16) 7:39 AM EST (1/16)
Length of Visible Light 10h 43m
Length of Day
9h 44m
Full, 100% of the Moon is Illuminated
Jan 16
Full
Jan 24
Last Quarter
Jan 30
New
Feb 6
First Quarter
Feb 14
Full

Hourly Weather History & Observations

Time (EST) Temp. Windchill Dew Point Humidity Pressure Visibility Wind Dir Wind Speed Gust Speed Precip Events Conditions
12:15 AM 24.8 °F - 19.4 °F 80% 30.03 in 10.0 mi Calm Calm - N/A   Overcast
12:35 AM 24.8 °F - 19.2 °F 79% 30.02 in 10.0 mi Calm Calm - N/A   Overcast
12:55 AM 25.2 °F 19.5 °F 19.2 °F 78% 30.02 in 10.0 mi SW 4.6 mph - N/A Snow Light Snow
1:15 AM 24.6 °F 18.8 °F 18.9 °F 79% 30.02 in 10.0 mi SW 4.6 mph - N/A   Mostly Cloudy
1:35 AM 23.9 °F 16.8 °F 18.5 °F 80% 30.03 in 10.0 mi SW 5.8 mph - N/A   Mostly Cloudy
1:55 AM 23.7 °F - 18.7 °F 81% 30.02 in 10.0 mi Calm Calm - N/A   Mostly Cloudy
2:15 AM 24.1 °F 16.0 °F 18.9 °F 80% 30.03 in 10.0 mi SW 6.9 mph - N/A   Overcast
2:35 AM 23.9 °F 19.5 °F 18.9 °F 81% 30.02 in 10.0 mi SSW 3.5 mph - N/A   Overcast
2:55 AM 23.4 °F 16.2 °F 18.5 °F 82% 30.01 in 10.0 mi SW 5.8 mph - N/A   Mostly Cloudy
3:15 AM 23.0 °F 15.8 °F 18.1 °F 82% 30.01 in 10.0 mi SW 5.8 mph - N/A   Scattered Clouds
3:35 AM 22.6 °F 16.5 °F 17.6 °F 81% 30.00 in 10.0 mi SSW 4.6 mph - N/A   Clear
3:55 AM 21.9 °F 15.7 °F 17.1 °F 82% 30.00 in 10.0 mi SW 4.6 mph - N/A   Clear
4:15 AM 20.8 °F - 16.5 °F 83% 30.00 in 10.0 mi Calm Calm - N/A   Clear
4:35 AM 20.8 °F 14.4 °F 16.7 °F 84% 29.99 in 10.0 mi SSW 4.6 mph - N/A   Clear
4:55 AM 19.9 °F 14.9 °F 16.3 °F 86% 29.99 in 10.0 mi South 3.5 mph - N/A   Clear
5:15 AM 20.3 °F 15.4 °F 16.5 °F 85% 30.00 in 10.0 mi SW 3.5 mph - N/A   Clear
5:35 AM 19.2 °F 12.5 °F 16.2 °F 88% 30.00 in 10.0 mi SSW 4.6 mph - N/A   Clear
5:55 AM 19.4 °F 14.3 °F 16.0 °F 87% 30.00 in 10.0 mi SSW 3.5 mph - N/A   Mostly Cloudy
6:15 AM 20.1 °F 15.2 °F 16.0 °F 84% 30.01 in 10.0 mi SW 3.5 mph - N/A   Scattered Clouds
6:35 AM 20.1 °F 15.2 °F 16.0 °F 84% 30.00 in 10.0 mi SW 3.5 mph - N/A   Scattered Clouds
6:55 AM 19.6 °F 14.5 °F 14.9 °F 82% 30.00 in 10.0 mi South 3.5 mph - N/A   Clear
7:15 AM 19.4 °F 14.3 °F 14.9 °F 83% 30.00 in 10.0 mi South 3.5 mph - N/A   Clear
7:35 AM 19.0 °F 12.3 °F 14.7 °F 83% 29.99 in 10.0 mi South 4.6 mph - N/A   Clear
7:55 AM 19.4 °F 12.8 °F 14.9 °F 83% 29.99 in 10.0 mi South 4.6 mph - N/A   Clear
8:15 AM 20.3 °F 13.8 °F 15.3 °F 81% 30.00 in 10.0 mi South 4.6 mph - N/A   Clear
8:35 AM 21.2 °F 16.4 °F 15.4 °F 78% 29.99 in 10.0 mi South 3.5 mph - N/A   Clear
8:55 AM 22.1 °F 15.9 °F 15.4 °F 76% 29.99 in 10.0 mi South 4.6 mph - N/A   Scattered Clouds
9:15 AM 23.0 °F 14.7 °F 15.8 °F 74% 30.00 in 10.0 mi South 6.9 mph - N/A   Mostly Cloudy
9:35 AM 23.7 °F 16.6 °F 16.0 °F 72% 30.00 in 10.0 mi South 5.8 mph - N/A   Mostly Cloudy
9:55 AM 25.3 °F 16.7 °F 16.5 °F 69% 29.99 in 10.0 mi South 8.1 mph - N/A   Scattered Clouds
10:15 AM 26.2 °F 17.8 °F 16.3 °F 66% 29.99 in 10.0 mi SSW 8.1 mph 16.1 mph N/A   Clear
10:35 AM 27.3 °F 19.9 °F 16.5 °F 64% 29.97 in 10.0 mi South 6.9 mph - N/A   Clear
10:55 AM 28.0 °F 17.0 °F 16.0 °F 61% 29.97 in 10.0 mi South 13.8 mph 19.6 mph N/A   Clear
11:15 AM 28.6 °F 20.7 °F 15.6 °F 58% 29.96 in 10.0 mi SSW 8.1 mph 17.3 mph N/A   Clear
11:35 AM 29.8 °F 22.2 °F 16.0 °F 56% 29.94 in 10.0 mi SSW 8.1 mph - N/A   Clear
11:55 AM 30.7 °F 22.6 °F 15.1 °F 52% 29.93 in 10.0 mi SSW 9.2 mph - N/A   Clear
12:15 PM 31.5 °F 24.2 °F 15.1 °F 51% 29.92 in 10.0 mi SW 8.1 mph - N/A   Scattered Clouds
12:35 PM 31.8 °F 23.9 °F 14.5 °F 49% 29.90 in 10.0 mi South 9.2 mph 18.4 mph N/A   Clear
12:55 PM 32.2 °F 24.4 °F 15.1 °F 49% 29.89 in 10.0 mi SSW 9.2 mph 16.1 mph N/A   Clear
1:15 PM 31.6 °F 23.7 °F 14.7 °F 50% 29.88 in 10.0 mi South 9.2 mph - N/A   Scattered Clouds
1:35 PM 31.8 °F 24.6 °F 14.7 °F 49% 29.87 in 10.0 mi South 8.1 mph - N/A   Mostly Cloudy
1:55 PM 32.0 °F 24.2 °F 14.9 °F 49% 29.86 in 10.0 mi SSW 9.2 mph - N/A   Mostly Cloudy
2:15 PM 32.0 °F 24.2 °F 14.9 °F 49% 29.86 in 10.0 mi South 9.2 mph - N/A   Overcast
2:35 PM 32.0 °F 24.8 °F 15.3 °F 50% 29.85 in 10.0 mi South 8.1 mph - N/A   Overcast
2:55 PM 32.0 °F 25.6 °F 14.9 °F 49% 29.84 in 10.0 mi South 6.9 mph - N/A   Overcast
3:35 PM 32.5 °F 26.2 °F 14.5 °F 48% 29.84 in 10.0 mi South 6.9 mph - N/A   Overcast
3:55 PM 32.9 °F 25.3 °F 14.7 °F 47% 29.84 in 10.0 mi South 9.2 mph - N/A   Overcast
4:15 PM 32.9 °F 23.7 °F 15.3 °F 48% 29.84 in 10.0 mi South 12.7 mph 17.3 mph N/A   Overcast
4:35 PM 32.5 °F 25.5 °F 15.6 °F 50% 29.83 in 10.0 mi South 8.1 mph - N/A   Overcast
4:55 PM 32.4 °F 22.5 °F 16.3 °F 52% 29.84 in 10.0 mi SSW 13.8 mph 19.6 mph N/A   Overcast
5:15 PM 32.0 °F 23.6 °F 18.1 °F 57% 29.82 in 10.0 mi SSW 10.4 mph 17.3 mph N/A   Overcast
5:35 PM 32.0 °F 26.4 °F 18.3 °F 57% 29.82 in 10.0 mi South 5.8 mph - N/A   Overcast
5:55 PM 31.8 °F 23.3 °F 19.9 °F 62% 29.82 in 10.0 mi South 10.4 mph - N/A   Overcast
6:15 PM 32.0 °F 26.4 °F 19.6 °F 60% 29.82 in 10.0 mi South 5.8 mph - N/A   Overcast
6:35 PM 32.0 °F 27.5 °F 19.2 °F 59% 29.82 in 10.0 mi South 4.6 mph - N/A   Overcast
6:55 PM 32.0 °F 27.5 °F 19.2 °F 59% 29.81 in 10.0 mi SSE 4.6 mph - N/A   Overcast
7:15 PM 32.2 °F 27.7 °F 19.2 °F 59% 29.81 in 10.0 mi South 4.6 mph - N/A   Overcast
7:35 PM 32.4 °F 26.9 °F 19.2 °F 58% 29.81 in 10.0 mi South 5.8 mph - N/A   Overcast
7:55 PM 32.5 °F 28.1 °F 19.2 °F 58% 29.81 in 10.0 mi South 4.6 mph - N/A   Overcast
8:15 PM 32.5 °F 29.3 °F 18.7 °F 57% 29.81 in 10.0 mi South 3.5 mph - N/A   Overcast
8:35 PM 32.9 °F - 18.3 °F 55% 29.80 in 10.0 mi Calm Calm - N/A   Overcast
8:55 PM 32.7 °F - 18.5 °F 56% 29.82 in 10.0 mi Calm Calm - N/A   Overcast
9:15 PM 33.3 °F 25.1 °F 18.7 °F 55% 29.84 in 10.0 mi WSW 10.4 mph 28.8 mph N/A   Overcast
9:35 PM 30.6 °F 21.8 °F 26.4 °F 85% 29.85 in 1.0 mi SW 10.4 mph 24.2 mph N/A Snow Light Snow
9:55 PM 30.2 °F 23.4 °F 27.5 °F 90% 29.85 in 2.5 mi SW 6.9 mph - N/A Snow Light Snow
10:15 PM 30.2 °F 25.4 °F 27.5 °F 90% 29.85 in 2.5 mi SSW 4.6 mph - N/A Snow Light Snow
10:35 PM 30.2 °F 24.3 °F 27.9 °F 91% 29.84 in 2.5 mi SSW 5.8 mph - N/A Snow Light Snow
10:55 PM 30.2 °F 25.4 °F 27.9 °F 91% 29.84 in 5.0 mi SSW 4.6 mph - N/A Snow Light Snow
11:15 PM 30.6 °F 23.1 °F 28.2 °F 91% 29.84 in 4.0 mi South 8.1 mph - N/A Snow Light Snow
11:35 PM 30.6 °F 23.8 °F 28.4 °F 92% 29.84 in 7.0 mi South 6.9 mph - N/A Snow Light Snow
11:55 PM 30.9 °F 23.5 °F 28.8 °F 92% 29.84 in 10.0 mi South 8.1 mph - N/A   Overcast